Home > Weather > Sochi > Past weeks

Flag for Russia Weather for the Past 2 Weeks in Sochi, Russia

Now
48 °F

Clear.


Feels Like: 46 °F
Forecast: 33 / 52 °F
Wind: 6 mph from West

Location: Adler

Current Time: Feb 9, 2016 at 5:24:24 PM

Latest Report: Feb 9, 2016 at 4:30 PM


Visibility: N/A

Pressure: 30.27 "Hg

Humidity: 62%

Dew point: 36 °F

Location of SochiLocation

Historic Weather in Sochi — Graph

°F

Sochi Temperature Yesterday

Maximum temperature yesterday: 50 °F (at 12:00 PM)
Minimum temperature yesterday: 41 °F (at 5:30 AM)
Average temperature yesterday: 45 °F

High & Low Weather Summary for the Past Weeks

 TemperatureHumidityPressure
High61 °F (Feb 4, 2:00 PM)100% (Jan 26, 3:00 AM)30.45 "Hg (Jan 26, 3:00 AM)
Low25 °F (Jan 26, 8:00 AM)36% (Feb 4, 2:00 PM)29.77 "Hg (Feb 5, 10:30 PM)
Average42 °F75%30.20 "Hg
* Reported Jan 25 4:00 PM — Feb 9 4:00 PM, Sochi, Weather by CustomWeather, © 2016

Note: Actual official high and low records may vary slightly from our data, if they occured in-between our weather recording intervals... More about our weather records

Advertising

Sochi Weather History for the Previous 24 Hours

 ConditionsComfort  
Time TempWeatherWind HumidityBarometerVisibility
4:00 PM
Tue, Feb 9
50 °FClear.6 mph62%30.27 "HgN/A
3:30 PM50 °FClear.6 mph62%30.27 "HgN/A
3:00 PM48 °FClear.8 mph66%30.27 "HgN/A
2:30 PM50 °FClear.8 mph58%30.30 "HgN/A
1:30 PM50 °FClear.8 mph62%30.30 "HgN/A
1:00 PM48 °FClear.8 mph62%30.30 "HgN/A
12:30 PM48 °FClear.8 mph62%30.33 "HgN/A
12:00 PM50 °FClear.6 mph62%30.33 "HgN/A
11:00 AM52 °FClear.1 mph50%30.33 "HgN/A
10:30 AM48 °FClear.1 mph58%30.33 "HgN/A
10:00 AM45 °FClear.6 mph66%30.36 "HgN/A
9:30 AM43 °FClear.6 mph71%30.36 "HgN/A
9:00 AM39 °FClear.6 mph81%30.36 "HgN/A
8:30 AM37 °FClear.6 mph87%30.36 "HgN/A
8:00 AM36 °FClear.6 mph93%30.36 "HgN/A
7:30 AM36 °FClear.6 mph93%30.33 "HgN/A
6:30 AM36 °FPassing clouds.No wind93%30.33 "HgN/A
6:00 AM36 °FPassing clouds.No wind93%30.33 "HgN/A
5:30 AM34 °FPassing clouds.3 mph100%30.36 "HgN/A
5:00 AM34 °FPassing clouds.6 mph93%30.36 "HgN/A
4:30 AM36 °FPassing clouds.3 mph93%30.36 "HgN/A
4:00 AM36 °FPassing clouds.3 mph93%30.36 "HgN/A
3:30 AM37 °FPassing clouds.6 mph87%30.36 "HgN/A
3:00 AM37 °FPassing clouds.6 mph93%30.36 "HgN/A
2:30 AM39 °FPassing clouds.3 mph87%30.39 "HgN/A
2:00 AM37 °FPassing clouds.3 mph93%30.39 "HgN/A
1:30 AM39 °FPassing clouds.3 mph87%30.39 "HgN/A
1:00 AM39 °FPassing clouds.3 mph87%30.39 "HgN/A
12:30 AM41 °FPassing clouds.3 mph87%30.39 "HgN/A
12:00 AM43 °FPassing clouds.1 mph81%30.39 "HgN/A
11:30 PM
Mon, Feb 8
45 °FPassing clouds.3 mph81%30.39 "HgN/A
11:00 PM45 °FPassing clouds.6 mph81%30.39 "HgN/A
10:30 PM45 °FPassing clouds.6 mph81%30.39 "HgN/A
10:00 PM45 °FPassing clouds.8 mph81%30.39 "HgN/A
9:30 PM45 °FPassing clouds.8 mph76%30.39 "HgN/A
9:00 PM45 °FPassing clouds.13 mph76%30.39 "HgN/A
8:30 PM46 °FPassing clouds.13 mph71%30.39 "HgN/A
8:00 PM45 °FPassing clouds.10 mph76%30.36 "HgN/A
7:30 PM46 °FMostly cloudy.13 mph71%30.36 "HgN/A
7:00 PM46 °FMostly cloudy.10 mph71%30.36 "HgN/A
6:30 PM46 °FMostly cloudy.10 mph71%30.36 "HgN/A
6:00 PM46 °FBroken clouds.8 mph71%30.36 "HgN/A
5:30 PM46 °FBroken clouds.13 mph76%30.33 "HgN/A
5:00 PM48 °FPartly sunny.8 mph71%30.33 "HgN/A
Weather by CustomWeather, © 2016

See weather overviewHow to use our weather pages